Weather History for KEKN - April, 2012

Change the Weather History Date:

Friday, April 6, 2012

  Actual Average Record
Temperature  
Mean Temperature 41 °F 47 °F  
Max Temperature 55 °F 60 °F 86 °F (2010)
Min Temperature 27 °F 34 °F 18 °F (1982)
Degree Days  
Heating Degree Days 24 18  
Month to date heating degree days 85 115  
Since 1 July heating degree days 4273 5216  
Cooling Degree Days 0 0  
Month to date cooling degree days 0 0  
Year to date cooling degree days 0 0  
Moisture  
Dew Point 23 °F    
Average Humidity 58    
Maximum Humidity 92    
Minimum Humidity 24    
Precipitation  
Precipitation 0.00 in 0.12 in 1.17 in (1926)
Month to date precipitation 0.04 0.76  
Year to date precipitation 9.53 11.05  
Snow  
Snow 0.00 in - - ()
Month to date snowfall 0.0  
Since 1 September snowfall 30.4  
Snow Depth 0.00 in    
Sea Level Pressure  
Sea Level Pressure 30.09 in    
Wind  
Wind Speed 5 mph (NNW)    
Max Wind Speed 20 mph    
Max Gust Speed 30 mph    
Visibility 10 miles    
Events      
T = Trace of Precipitation, MM = Missing Value Source: NWS Daily Summary

Daily Weather History Graph

Daily Weather History Graph

Search for Another Location

Airport or City:

Trip Planner

Search our weather history database for the weather conditions in past years. The results will help you decide how hot, cold, wet, or windy it might be!

Date:

Astronomy

Apr. 06, 2012 Rise Set
Actual Time 6:55 AM EDT 7:48 PM EDT
Civil Twilight 6:28 AM EDT 8:15 PM EDT
Nautical Twilight 5:56 AM EDT 8:47 PM EDT
Astronomical Twilight 5:23 AM EDT 9:20 PM EDT
Moon 8:05 PM EDT (4/6) 6:27 AM EDT (4/6)
Length of Visible Light 13h 46m
Length of Day
12h 52m
Full, 100% of the Moon is Illuminated
Apr 6
Full
Apr 6
Full
Apr 13
Last Quarter
Apr 21
New
Apr 29
First Quarter

Hourly Weather History & Observations

Time (EDT) Temp. Windchill Dew Point Humidity Pressure Visibility Wind Dir Wind Speed Gust Speed Precip Events Conditions
12:51 AM 35.1 °F - 28.9 °F 78% 29.95 in 10.0 mi Calm Calm - N/A   Clear
1:51 AM 33.1 °F - 28.0 °F 82% 29.95 in 10.0 mi Calm Calm - N/A   Clear
2:51 AM 32.0 °F - 28.0 °F 85% 29.96 in 10.0 mi Calm Calm - N/A   Clear
3:51 AM 30.9 °F - 27.0 °F 85% 29.97 in 10.0 mi Calm Calm - N/A   Clear
4:51 AM 28.9 °F - 26.1 °F 89% 29.98 in 10.0 mi Calm Calm - N/A   Clear
5:51 AM 28.0 °F - 25.0 °F 88% 30.00 in 10.0 mi Calm Calm - N/A   Clear
6:51 AM 28.0 °F - 25.0 °F 88% 30.04 in 10.0 mi Calm Calm - N/A   Clear
7:51 AM 30.0 °F - 27.0 °F 88% 30.07 in 10.0 mi Calm Calm - N/A   Clear
8:51 AM 39.9 °F - 30.9 °F 70% 30.08 in 10.0 mi Calm Calm - 0.01 in   Clear
9:51 AM 45.0 °F 43.5 °F 25.0 °F 46% 30.10 in 10.0 mi Variable 3.5 mph - N/A   Clear
10:51 AM 46.9 °F - 25.0 °F 42% 30.12 in 10.0 mi NNW 11.5 mph - N/A   Clear
11:51 AM 50.0 °F - 19.9 °F 31% 30.12 in 10.0 mi North 13.8 mph 19.6 mph N/A   Clear
12:51 PM 52.0 °F - 21.0 °F 30% 30.10 in 10.0 mi NNW 11.5 mph 17.3 mph N/A   Clear
1:51 PM 53.1 °F - 19.9 °F 27% 30.10 in 10.0 mi WNW 15.0 mph 21.9 mph N/A   Clear
2:51 PM 54.0 °F - 18.0 °F 24% 30.10 in 10.0 mi NW 11.5 mph 20.7 mph N/A   Clear
3:51 PM 54.0 °F - 17.1 °F 23% 30.10 in 10.0 mi NW 9.2 mph 26.5 mph N/A   Clear
4:51 PM 54.0 °F - 19.0 °F 25% 30.12 in 10.0 mi NNW 13.8 mph 19.6 mph N/A   Clear
5:51 PM 53.1 °F - 18.0 °F 25% 30.13 in 10.0 mi NNW 12.7 mph 21.9 mph N/A   Clear
6:51 PM 52.0 °F - 17.1 °F 25% 30.14 in 10.0 mi NNW 12.7 mph 18.4 mph N/A   Clear
7:51 PM 48.9 °F - 17.1 °F 28% 30.15 in 10.0 mi NNW 5.8 mph - N/A   Clear
8:51 PM 43.0 °F 41.3 °F 19.9 °F 40% 30.17 in 10.0 mi North 3.5 mph - N/A   Clear
9:51 PM 36.0 °F - 25.0 °F 64% 30.19 in 10.0 mi Calm Calm - N/A   Clear
10:51 PM 34.0 °F - 26.1 °F 73% 30.20 in 10.0 mi Calm Calm - 0.00 in   Clear
11:51 PM 32.0 °F - 26.1 °F 79% 30.22 in 10.0 mi Calm Calm - N/A   Clear